Tracking 21998 objects as of 1-Dec-2020
HD Live streaming from Space Station
objects crossing your sky now

COSMOS 375

Track COSMOS 375 now!
10-day predictions
COSMOS 375 is classified as:


NORAD ID: 4598
Int'l Code: 1970-091A
Perigee: 575.3 km
Apogee: 1,993.6 km
Inclination: 62.8 °
Period: 111.1 minutes
Semi major axis: 7655 km
RCS: 5.8971 m2 (large)
Launch date: October 30, 1970
Source: Commonwealth of Independent States (former USSR) (CIS)
Launch site: TYURATAM MISSILE AND SPACE COMPLEX (TTMTR)
aabbcc
Your satellite tracking list
Your tracking list is empty




NASA's NSSDC Master Catalog

Two Line Element Set (TLE):
1  4598U 70091A   20336.46763133 -.00000034  00000-0  30620-4 0  9993
2  4598  62.8295 236.4583 0926383 318.0935  35.2601 12.96125765365703
Source of the keplerian elements: AFSPC